| State | Ohio | Latest | High (2380 cfs) | |
| River | Maumee River | Rating | Observed | Estimated |
| Updated | 2026-05-10 9:00 (1 hour ago) | Flood - The river is flooding. Obstacles can be treacherous or deadly. The river should be avoided at this stage for casual trips and definitely for the inexperienced. Trips should be attempted only with protective gear and equipment.Flood | (none) | 5712 |
| Discharge | 2380 cfs (median: 1390 cfs) | High - The river is high and potentially dangerous, especially for the young and / or inexperienced. Normal stream obstacles are sometimes difficult to navigate. Extended distances can be attempted, but canoe travel may not be advisable.High | (none) | 1275 |
| Height | 9.96 feet | Good - Conditions are ideal for a canoe or kayak. Boats typically will drag on fewer than one-quarter of riffles, if at all, and portages are unnecessary or rare. Normal float lengths can be attempted without a problem.Good | 200 | 706 |
| Trend | Rising (falling over 24 hours) | Low - River is low but can still be floated. Some riffles are okay but most come with significant dragging and might need a portage. Float lengths should be reduced to accommodate low flow, dragging, and portages.Low | (none) | 439 |
| USGS | USGS Site ( Duck Duck Go Maps) | Poor - River is too low to float comfortably. Most or all riffles will drag or must be portaged and some obstacles (such as slick shelf rock) cause undue problems. Avoid the river at this stage for casual paddling trips.Poor | (none) | 120 |
A total of 3 rows are displayed.
| Miles | 21.9 |
| Trips | 3 |
| People | 8 |
| Dates | 3 |
| Years | 2 |
| Months | 2 |
| Rows | 3 |
| Sources | 1 |
BLG - Bluegill
CCF - Channel Catfish
CP - Chain Pickerel
FWD - Freshwater Drum
GSF - Green Sunfish
KSB - Kentucky Spotted Bass
LMB - Largemouth Bass
LSF - Longear Sunfish
RB - Rock Bass / Goggle Eye
RSF - Redear Sunfish
RT - Rainbow Trout
SMB - Smallmouth Bass
WB - White Bass
WF - Whitefish
WL - WalleyeThe classic River Trips application is still available for use. It is updated with the new system using a data retrofit. It is no longer maintained. The original River Trips application is no longer updated (as of 1 Dec 2016) but can be checked for errors or for the condition of the data before it was converted to the new system.
| Observation | Height | Discharge | Maximum Discharge | Minimum Discharge | Mean Discharge | P05 | P10 | P20 | P25 | P50 (Median) | P75 | P80 | P90 | P95 |
|---|---|---|---|---|---|---|---|---|---|---|---|---|---|---|
| 2026-05-10 09:00 | 9.96 | 2380 | 12900 (1933) | 290 (1946) | 2290 | 338 | 462 | 627 | 712 | 1390 | 2430 | 3310 | 5470 | 9180 |
| 2026-05-10 08:00 | 9.95 | 2370 | 12900 (1933) | 290 (1946) | 2290 | 338 | 462 | 627 | 712 | 1390 | 2430 | 3310 | 5470 | 9180 |
| 2026-05-10 07:00 | 9.95 | 2370 | 12900 (1933) | 290 (1946) | 2290 | 338 | 462 | 627 | 712 | 1390 | 2430 | 3310 | 5470 | 9180 |
| 2026-05-10 06:00 | 9.95 | 2370 | 12900 (1933) | 290 (1946) | 2290 | 338 | 462 | 627 | 712 | 1390 | 2430 | 3310 | 5470 | 9180 |
| 2026-05-10 05:00 | 9.95 | 2370 | 12900 (1933) | 290 (1946) | 2290 | 338 | 462 | 627 | 712 | 1390 | 2430 | 3310 | 5470 | 9180 |
| 2026-05-10 04:00 | 9.95 | 2370 | 12900 (1933) | 290 (1946) | 2290 | 338 | 462 | 627 | 712 | 1390 | 2430 | 3310 | 5470 | 9180 |
| 2026-05-10 03:00 | 9.96 | 2380 | 12900 (1933) | 290 (1946) | 2290 | 338 | 462 | 627 | 712 | 1390 | 2430 | 3310 | 5470 | 9180 |
| 2026-05-10 02:00 | 9.95 | 2370 | 12900 (1933) | 290 (1946) | 2290 | 338 | 462 | 627 | 712 | 1390 | 2430 | 3310 | 5470 | 9180 |
| 2026-05-10 01:00 | 9.96 | 2380 | 12900 (1933) | 290 (1946) | 2290 | 338 | 462 | 627 | 712 | 1390 | 2430 | 3310 | 5470 | 9180 |
| 2026-05-10 00:00 | 9.98 | 2390 | 12900 (1933) | 290 (1946) | 2290 | 338 | 462 | 627 | 712 | 1390 | 2430 | 3310 | 5470 | 9180 |
| 2026-05-09 23:00 | 9.98 | 2390 | 12900 (1933) | 290 (1946) | 2290 | 338 | 462 | 627 | 712 | 1390 | 2430 | 3310 | 5470 | 9180 |
| 2026-05-09 22:00 | 1 | 2410 | 12200 (1933) | 290 (1946) | 2100 | 355 | 444 | 652 | 715 | 1360 | 2510 | 2950 | 4330 | 7840 |
| 2026-05-09 21:00 | 1 | 2410 | 12200 (1933) | 290 (1946) | 2100 | 355 | 444 | 652 | 715 | 1360 | 2510 | 2950 | 4330 | 7840 |
| 2026-05-09 20:00 | 10.02 | 2430 | 12200 (1933) | 290 (1946) | 2100 | 355 | 444 | 652 | 715 | 1360 | 2510 | 2950 | 4330 | 7840 |
| 2026-05-09 19:00 | 10.04 | 2440 | 12200 (1933) | 290 (1946) | 2100 | 355 | 444 | 652 | 715 | 1360 | 2510 | 2950 | 4330 | 7840 |
| 2026-05-09 18:00 | 10.06 | 2460 | 12200 (1933) | 290 (1946) | 2100 | 355 | 444 | 652 | 715 | 1360 | 2510 | 2950 | 4330 | 7840 |
| 2026-05-09 17:00 | 10.08 | 2480 | 12200 (1933) | 290 (1946) | 2100 | 355 | 444 | 652 | 715 | 1360 | 2510 | 2950 | 4330 | 7840 |
| 2026-05-09 16:00 | 10.09 | 2480 | 12200 (1933) | 290 (1946) | 2100 | 355 | 444 | 652 | 715 | 1360 | 2510 | 2950 | 4330 | 7840 |
| 2026-05-09 15:00 | 10.10 | 2490 | 12200 (1933) | 290 (1946) | 2100 | 355 | 444 | 652 | 715 | 1360 | 2510 | 2950 | 4330 | 7840 |
| 2026-05-09 14:00 | 10.16 | 2540 | 12200 (1933) | 290 (1946) | 2100 | 355 | 444 | 652 | 715 | 1360 | 2510 | 2950 | 4330 | 7840 |
| 2026-05-09 13:00 | 10.18 | 2560 | 12200 (1933) | 290 (1946) | 2100 | 355 | 444 | 652 | 715 | 1360 | 2510 | 2950 | 4330 | 7840 |
| 2026-05-09 12:00 | 10.22 | 2590 | 12200 (1933) | 290 (1946) | 2100 | 355 | 444 | 652 | 715 | 1360 | 2510 | 2950 | 4330 | 7840 |
| 2026-05-09 11:00 | 10.24 | 2610 | 12200 (1933) | 290 (1946) | 2100 | 355 | 444 | 652 | 715 | 1360 | 2510 | 2950 | 4330 | 7840 |
| 2026-05-09 10:00 | 10.26 | 2630 | 12200 (1933) | 290 (1946) | 2100 | 355 | 444 | 652 | 715 | 1360 | 2510 | 2950 | 4330 | 7840 |
| 2026-05-09 09:00 | 10.31 | 2670 | 12200 (1933) | 290 (1946) | 2100 | 355 | 444 | 652 | 715 | 1360 | 2510 | 2950 | 4330 | 7840 |
| 2026-05-09 08:00 | 10.35 | 2710 | 12200 (1933) | 290 (1946) | 2100 | 355 | 444 | 652 | 715 | 1360 | 2510 | 2950 | 4330 | 7840 |
| 2026-05-09 07:00 | 10.39 | 2740 | 12200 (1933) | 290 (1946) | 2100 | 355 | 444 | 652 | 715 | 1360 | 2510 | 2950 | 4330 | 7840 |
| 2026-05-09 06:00 | 10.43 | 2780 | 12200 (1933) | 290 (1946) | 2100 | 355 | 444 | 652 | 715 | 1360 | 2510 | 2950 | 4330 | 7840 |
| 2026-05-09 05:00 | 10.47 | 2810 | 12200 (1933) | 290 (1946) | 2100 | 355 | 444 | 652 | 715 | 1360 | 2510 | 2950 | 4330 | 7840 |
| 2026-05-09 04:00 | 10.53 | 2860 | 12200 (1933) | 290 (1946) | 2100 | 355 | 444 | 652 | 715 | 1360 | 2510 | 2950 | 4330 | 7840 |
| 2026-05-09 03:00 | 10.57 | 2900 | 12200 (1933) | 290 (1946) | 2100 | 355 | 444 | 652 | 715 | 1360 | 2510 | 2950 | 4330 | 7840 |
| 2026-05-09 02:00 | 10.62 | 2950 | 12200 (1933) | 290 (1946) | 2100 | 355 | 444 | 652 | 715 | 1360 | 2510 | 2950 | 4330 | 7840 |
| 2026-05-09 01:00 | 10.68 | 3000 | 12200 (1933) | 290 (1946) | 2100 | 355 | 444 | 652 | 715 | 1360 | 2510 | 2950 | 4330 | 7840 |
| 2026-05-09 00:00 | 10.73 | 3040 | 12200 (1933) | 290 (1946) | 2100 | 355 | 444 | 652 | 715 | 1360 | 2510 | 2950 | 4330 | 7840 |
| 2026-05-08 23:00 | 10.79 | 3090 | 12200 (1933) | 290 (1946) | 2100 | 355 | 444 | 652 | 715 | 1360 | 2510 | 2950 | 4330 | 7840 |
| 2026-05-08 22:00 | 10.85 | 3140 | 12800 (2017) | 287 (1946) | 2120 | 362 | 490 | 713 | 766 | 1180 | 2730 | 3340 | 4280 | 8750 |
| 2026-05-08 21:00 | 10.90 | 3180 | 12800 (2017) | 287 (1946) | 2120 | 362 | 490 | 713 | 766 | 1180 | 2730 | 3340 | 4280 | 8750 |
| 2026-05-08 20:00 | 10.97 | 3240 | 12800 (2017) | 287 (1946) | 2120 | 362 | 490 | 713 | 766 | 1180 | 2730 | 3340 | 4280 | 8750 |
| 2026-05-08 19:00 | 11.04 | 3290 | 12800 (2017) | 287 (1946) | 2120 | 362 | 490 | 713 | 766 | 1180 | 2730 | 3340 | 4280 | 8750 |
| 2026-05-08 18:00 | 11.10 | 3340 | 12800 (2017) | 287 (1946) | 2120 | 362 | 490 | 713 | 766 | 1180 | 2730 | 3340 | 4280 | 8750 |
| 2026-05-08 17:00 | 11.16 | 3390 | 12800 (2017) | 287 (1946) | 2120 | 362 | 490 | 713 | 766 | 1180 | 2730 | 3340 | 4280 | 8750 |
| 2026-05-08 16:00 | 11.23 | 3450 | 12800 (2017) | 287 (1946) | 2120 | 362 | 490 | 713 | 766 | 1180 | 2730 | 3340 | 4280 | 8750 |
| 2026-05-08 15:00 | 11.30 | 3510 | 12800 (2017) | 287 (1946) | 2120 | 362 | 490 | 713 | 766 | 1180 | 2730 | 3340 | 4280 | 8750 |
| 2026-05-08 14:00 | 11.37 | 3560 | 12800 (2017) | 287 (1946) | 2120 | 362 | 490 | 713 | 766 | 1180 | 2730 | 3340 | 4280 | 8750 |
| 2026-05-08 13:00 | 11.44 | 3620 | 12800 (2017) | 287 (1946) | 2120 | 362 | 490 | 713 | 766 | 1180 | 2730 | 3340 | 4280 | 8750 |
| 2026-05-08 12:00 | 11.51 | 3680 | 12800 (2017) | 287 (1946) | 2120 | 362 | 490 | 713 | 766 | 1180 | 2730 | 3340 | 4280 | 8750 |
| 2026-05-08 11:00 | 11.57 | 3730 | 12800 (2017) | 287 (1946) | 2120 | 362 | 490 | 713 | 766 | 1180 | 2730 | 3340 | 4280 | 8750 |
| 2026-05-08 10:00 | 11.61 | 3770 | 12800 (2017) | 287 (1946) | 2120 | 362 | 490 | 713 | 766 | 1180 | 2730 | 3340 | 4280 | 8750 |
| 2026-05-08 09:00 | 11.66 | 3810 | 12800 (2017) | 287 (1946) | 2120 | 362 | 490 | 713 | 766 | 1180 | 2730 | 3340 | 4280 | 8750 |
| 2026-05-08 08:00 | 11.70 | 3840 | 12800 (2017) | 287 (1946) | 2120 | 362 | 490 | 713 | 766 | 1180 | 2730 | 3340 | 4280 | 8750 |
| 2026-05-08 07:00 | 11.74 | 3880 | 12800 (2017) | 287 (1946) | 2120 | 362 | 490 | 713 | 766 | 1180 | 2730 | 3340 | 4280 | 8750 |
| 2026-05-08 06:00 | 11.78 | 3910 | 12800 (2017) | 287 (1946) | 2120 | 362 | 490 | 713 | 766 | 1180 | 2730 | 3340 | 4280 | 8750 |
| 2026-05-08 05:00 | 11.80 | 3930 | 12800 (2017) | 287 (1946) | 2120 | 362 | 490 | 713 | 766 | 1180 | 2730 | 3340 | 4280 | 8750 |
| 2026-05-08 04:00 | 11.82 | 3950 | 12800 (2017) | 287 (1946) | 2120 | 362 | 490 | 713 | 766 | 1180 | 2730 | 3340 | 4280 | 8750 |
| 2026-05-08 03:00 | 11.84 | 3960 | 12800 (2017) | 287 (1946) | 2120 | 362 | 490 | 713 | 766 | 1180 | 2730 | 3340 | 4280 | 8750 |
| 2026-05-08 02:00 | 11.85 | 3970 | 12800 (2017) | 287 (1946) | 2120 | 362 | 490 | 713 | 766 | 1180 | 2730 | 3340 | 4280 | 8750 |
| 2026-05-08 01:00 | 11.86 | 3980 | 12800 (2017) | 287 (1946) | 2120 | 362 | 490 | 713 | 766 | 1180 | 2730 | 3340 | 4280 | 8750 |
| 2026-05-08 00:00 | 11.86 | 3980 | 12800 (2017) | 287 (1946) | 2120 | 362 | 490 | 713 | 766 | 1180 | 2730 | 3340 | 4280 | 8750 |
| 2026-05-07 23:00 | 11.86 | 3980 | 12800 (2017) | 287 (1946) | 2120 | 362 | 490 | 713 | 766 | 1180 | 2730 | 3340 | 4280 | 8750 |
| 2026-05-07 22:00 | 11.85 | 3970 | 14700 (2017) | 239 (1928) | 2170 | 326 | 415 | 675 | 742 | 1220 | 2530 | 3190 | 4800 | 8270 |
| 2026-05-07 21:00 | 11.82 | 3950 | 14700 (2017) | 239 (1928) | 2170 | 326 | 415 | 675 | 742 | 1220 | 2530 | 3190 | 4800 | 8270 |
| 2026-05-07 20:00 | 11.84 | 3960 | 14700 (2017) | 239 (1928) | 2170 | 326 | 415 | 675 | 742 | 1220 | 2530 | 3190 | 4800 | 8270 |
| 2026-05-07 19:00 | 11.80 | 3930 | 14700 (2017) | 239 (1928) | 2170 | 326 | 415 | 675 | 742 | 1220 | 2530 | 3190 | 4800 | 8270 |
| 2026-05-07 18:00 | 11.79 | 3920 | 14700 (2017) | 239 (1928) | 2170 | 326 | 415 | 675 | 742 | 1220 | 2530 | 3190 | 4800 | 8270 |
| 2026-05-07 17:00 | 11.76 | 3890 | 14700 (2017) | 239 (1928) | 2170 | 326 | 415 | 675 | 742 | 1220 | 2530 | 3190 | 4800 | 8270 |
| 2026-05-07 16:00 | 11.72 | 3860 | 14700 (2017) | 239 (1928) | 2170 | 326 | 415 | 675 | 742 | 1220 | 2530 | 3190 | 4800 | 8270 |
| 2026-05-07 15:00 | 11.68 | 3830 | 14700 (2017) | 239 (1928) | 2170 | 326 | 415 | 675 | 742 | 1220 | 2530 | 3190 | 4800 | 8270 |
| 2026-05-07 14:00 | 11.64 | 3790 | 14700 (2017) | 239 (1928) | 2170 | 326 | 415 | 675 | 742 | 1220 | 2530 | 3190 | 4800 | 8270 |
| 2026-05-07 13:00 | 11.58 | 3740 | 14700 (2017) | 239 (1928) | 2170 | 326 | 415 | 675 | 742 | 1220 | 2530 | 3190 | 4800 | 8270 |
| 2026-05-07 12:00 | 11.50 | 3670 | 14700 (2017) | 239 (1928) | 2170 | 326 | 415 | 675 | 742 | 1220 | 2530 | 3190 | 4800 | 8270 |
| 2026-05-07 11:00 | 11.41 | 3600 | 14700 (2017) | 239 (1928) | 2170 | 326 | 415 | 675 | 742 | 1220 | 2530 | 3190 | 4800 | 8270 |
| 2026-05-07 10:00 | 11.30 | 3510 | 14700 (2017) | 239 (1928) | 2170 | 326 | 415 | 675 | 742 | 1220 | 2530 | 3190 | 4800 | 8270 |
| 2026-05-07 08:45 | 11.18 | 3410 | 14700 (2017) | 239 (1928) | 2170 | 326 | 415 | 675 | 742 | 1220 | 2530 | 3190 | 4800 | 8270 |
| 2026-05-07 08:00 | 11.07 | 3320 | 14700 (2017) | 239 (1928) | 2170 | 326 | 415 | 675 | 742 | 1220 | 2530 | 3190 | 4800 | 8270 |
| 2026-05-07 07:00 | 10.93 | 3200 | 14700 (2017) | 239 (1928) | 2170 | 326 | 415 | 675 | 742 | 1220 | 2530 | 3190 | 4800 | 8270 |
| 2026-05-07 06:00 | 10.77 | 3080 | 14700 (2017) | 239 (1928) | 2170 | 326 | 415 | 675 | 742 | 1220 | 2530 | 3190 | 4800 | 8270 |
| 2026-05-07 05:00 | 10.63 | 2950 | 14700 (2017) | 239 (1928) | 2170 | 326 | 415 | 675 | 742 | 1220 | 2530 | 3190 | 4800 | 8270 |
| 2026-05-07 04:00 | 10.48 | 2820 | 14700 (2017) | 239 (1928) | 2170 | 326 | 415 | 675 | 742 | 1220 | 2530 | 3190 | 4800 | 8270 |
| 2026-05-07 03:00 | 10.34 | 2700 | 14700 (2017) | 239 (1928) | 2170 | 326 | 415 | 675 | 742 | 1220 | 2530 | 3190 | 4800 | 8270 |
| 2026-05-07 02:00 | 10.21 | 2590 | 14700 (2017) | 239 (1928) | 2170 | 326 | 415 | 675 | 742 | 1220 | 2530 | 3190 | 4800 | 8270 |
| 2026-05-07 01:00 | 10.10 | 2490 | 14700 (2017) | 239 (1928) | 2170 | 326 | 415 | 675 | 742 | 1220 | 2530 | 3190 | 4800 | 8270 |
| 2026-05-07 00:00 | 10.02 | 2430 | 14700 (2017) | 239 (1928) | 2170 | 326 | 415 | 675 | 742 | 1220 | 2530 | 3190 | 4800 | 8270 |
| 2026-05-06 23:00 | 9.96 | 2380 | 14700 (2017) | 239 (1928) | 2170 | 326 | 415 | 675 | 742 | 1220 | 2530 | 3190 | 4800 | 8270 |
| 2026-05-06 20:45 | 9.91 | 2340 | 16300 (2017) | 287 (1946) | 2200 | 362 | 386 | 768 | 801 | 1360 | 2280 | 3520 | 5550 | 7070 |
| 2026-05-06 20:00 | 9.91 | 2340 | 16300 (2017) | 287 (1946) | 2200 | 362 | 386 | 768 | 801 | 1360 | 2280 | 3520 | 5550 | 7070 |
| 2026-05-06 19:00 | 9.92 | 2340 | 16300 (2017) | 287 (1946) | 2200 | 362 | 386 | 768 | 801 | 1360 | 2280 | 3520 | 5550 | 7070 |
| 2026-05-06 18:00 | 9.93 | 2350 | 16300 (2017) | 287 (1946) | 2200 | 362 | 386 | 768 | 801 | 1360 | 2280 | 3520 | 5550 | 7070 |
| 2026-05-06 17:00 | 9.95 | 2370 | 16300 (2017) | 287 (1946) | 2200 | 362 | 386 | 768 | 801 | 1360 | 2280 | 3520 | 5550 | 7070 |
| 2026-05-06 16:00 | 9.97 | 2390 | 16300 (2017) | 287 (1946) | 2200 | 362 | 386 | 768 | 801 | 1360 | 2280 | 3520 | 5550 | 7070 |
| 2026-05-06 15:00 | 9.98 | 2390 | 16300 (2017) | 287 (1946) | 2200 | 362 | 386 | 768 | 801 | 1360 | 2280 | 3520 | 5550 | 7070 |
| 2026-05-06 14:00 | 1 | 2410 | 16300 (2017) | 287 (1946) | 2200 | 362 | 386 | 768 | 801 | 1360 | 2280 | 3520 | 5550 | 7070 |
| 2026-05-06 13:00 | 10.02 | 2430 | 16300 (2017) | 287 (1946) | 2200 | 362 | 386 | 768 | 801 | 1360 | 2280 | 3520 | 5550 | 7070 |
| 2026-05-06 12:00 | 10.04 | 2440 | 16300 (2017) | 287 (1946) | 2200 | 362 | 386 | 768 | 801 | 1360 | 2280 | 3520 | 5550 | 7070 |
| 2026-05-06 11:00 | 10.06 | 2460 | 16300 (2017) | 287 (1946) | 2200 | 362 | 386 | 768 | 801 | 1360 | 2280 | 3520 | 5550 | 7070 |
| 2026-05-06 10:00 | 10.07 | 2470 | 16300 (2017) | 287 (1946) | 2200 | 362 | 386 | 768 | 801 | 1360 | 2280 | 3520 | 5550 | 7070 |
| 2026-05-06 09:00 | 10.08 | 2480 | 16300 (2017) | 287 (1946) | 2200 | 362 | 386 | 768 | 801 | 1360 | 2280 | 3520 | 5550 | 7070 |
| 2026-05-06 08:00 | 10.09 | 2480 | 16300 (2017) | 287 (1946) | 2200 | 362 | 386 | 768 | 801 | 1360 | 2280 | 3520 | 5550 | 7070 |
| 2026-05-06 07:00 | 10.10 | 2490 | 16300 (2017) | 287 (1946) | 2200 | 362 | 386 | 768 | 801 | 1360 | 2280 | 3520 | 5550 | 7070 |
| 2026-05-06 06:00 | 10.11 | 2500 | 16300 (2017) | 287 (1946) | 2200 | 362 | 386 | 768 | 801 | 1360 | 2280 | 3520 | 5550 | 7070 |
| 2026-05-06 05:00 | 10.11 | 2500 | 16300 (2017) | 287 (1946) | 2200 | 362 | 386 | 768 | 801 | 1360 | 2280 | 3520 | 5550 | 7070 |
| 2026-05-06 04:00 | 10.12 | 2510 | 16300 (2017) | 287 (1946) | 2200 | 362 | 386 | 768 | 801 | 1360 | 2280 | 3520 | 5550 | 7070 |
| 2026-05-06 03:00 | 10.13 | 2520 | 16300 (2017) | 287 (1946) | 2200 | 362 | 386 | 768 | 801 | 1360 | 2280 | 3520 | 5550 | 7070 |
| 2026-05-06 02:00 | 10.13 | 2520 | 16300 (2017) | 287 (1946) | 2200 | 362 | 386 | 768 | 801 | 1360 | 2280 | 3520 | 5550 | 7070 |
| 2026-05-06 01:00 | 10.15 | 2540 | 16300 (2017) | 287 (1946) | 2200 | 362 | 386 | 768 | 801 | 1360 | 2280 | 3520 | 5550 | 7070 |
| 2026-05-06 00:00 | 10.16 | 2540 | 16300 (2017) | 287 (1946) | 2200 | 362 | 386 | 768 | 801 | 1360 | 2280 | 3520 | 5550 | 7070 |
| 2026-05-05 23:00 | 10.18 | 2560 | 16300 (2017) | 287 (1946) | 2200 | 362 | 386 | 768 | 801 | 1360 | 2280 | 3520 | 5550 | 7070 |
| 2026-05-05 22:00 | 10.18 | 2560 | 14800 (2017) | 281 (1946) | 2280 | 361 | 423 | 764 | 812 | 1410 | 2230 | 3610 | 6900 | 8040 |
| 2026-05-05 21:00 | 10.20 | 2580 | 14800 (2017) | 281 (1946) | 2280 | 361 | 423 | 764 | 812 | 1410 | 2230 | 3610 | 6900 | 8040 |
| 2026-05-05 20:00 | 10.23 | 2600 | 14800 (2017) | 281 (1946) | 2280 | 361 | 423 | 764 | 812 | 1410 | 2230 | 3610 | 6900 | 8040 |
| 2026-05-05 19:00 | 10.25 | 2620 | 14800 (2017) | 281 (1946) | 2280 | 361 | 423 | 764 | 812 | 1410 | 2230 | 3610 | 6900 | 8040 |
| 2026-05-05 18:00 | 10.26 | 2630 | 14800 (2017) | 281 (1946) | 2280 | 361 | 423 | 764 | 812 | 1410 | 2230 | 3610 | 6900 | 8040 |
| 2026-05-05 17:00 | 10.28 | 2650 | 14800 (2017) | 281 (1946) | 2280 | 361 | 423 | 764 | 812 | 1410 | 2230 | 3610 | 6900 | 8040 |
| 2026-05-05 16:00 | 10.30 | 2660 | 14800 (2017) | 281 (1946) | 2280 | 361 | 423 | 764 | 812 | 1410 | 2230 | 3610 | 6900 | 8040 |
| 2026-05-05 15:00 | 10.33 | 2690 | 14800 (2017) | 281 (1946) | 2280 | 361 | 423 | 764 | 812 | 1410 | 2230 | 3610 | 6900 | 8040 |
| 2026-05-05 14:00 | 10.33 | 2690 | 14800 (2017) | 281 (1946) | 2280 | 361 | 423 | 764 | 812 | 1410 | 2230 | 3610 | 6900 | 8040 |
| 2026-05-05 12:45 | 10.35 | 2710 | 14800 (2017) | 281 (1946) | 2280 | 361 | 423 | 764 | 812 | 1410 | 2230 | 3610 | 6900 | 8040 |
| 2026-05-05 12:00 | 10.37 | 2720 | 14800 (2017) | 281 (1946) | 2280 | 361 | 423 | 764 | 812 | 1410 | 2230 | 3610 | 6900 | 8040 |
| 2026-05-05 11:00 | 10.38 | 2730 | 14800 (2017) | 281 (1946) | 2280 | 361 | 423 | 764 | 812 | 1410 | 2230 | 3610 | 6900 | 8040 |
| 2026-05-05 10:00 | 10.39 | 2740 | 14800 (2017) | 281 (1946) | 2280 | 361 | 423 | 764 | 812 | 1410 | 2230 | 3610 | 6900 | 8040 |
| 2026-05-05 09:00 | 10.41 | 2760 | 14800 (2017) | 281 (1946) | 2280 | 361 | 423 | 764 | 812 | 1410 | 2230 | 3610 | 6900 | 8040 |
| 2026-05-05 08:00 | 10.43 | 2780 | 14800 (2017) | 281 (1946) | 2280 | 361 | 423 | 764 | 812 | 1410 | 2230 | 3610 | 6900 | 8040 |
| 2026-05-05 07:00 | 10.45 | 2790 | 14800 (2017) | 281 (1946) | 2280 | 361 | 423 | 764 | 812 | 1410 | 2230 | 3610 | 6900 | 8040 |
| 2026-05-05 06:00 | 10.49 | 2830 | 14800 (2017) | 281 (1946) | 2280 | 361 | 423 | 764 | 812 | 1410 | 2230 | 3610 | 6900 | 8040 |
| 2026-05-05 05:00 | 10.51 | 2850 | 14800 (2017) | 281 (1946) | 2280 | 361 | 423 | 764 | 812 | 1410 | 2230 | 3610 | 6900 | 8040 |
| 2026-05-05 04:00 | 10.55 | 2880 | 14800 (2017) | 281 (1946) | 2280 | 361 | 423 | 764 | 812 | 1410 | 2230 | 3610 | 6900 | 8040 |
| 2026-05-05 03:00 | 10.59 | 2920 | 14800 (2017) | 281 (1946) | 2280 | 361 | 423 | 764 | 812 | 1410 | 2230 | 3610 | 6900 | 8040 |
| 2026-05-05 02:00 | 10.64 | 2960 | 14800 (2017) | 281 (1946) | 2280 | 361 | 423 | 764 | 812 | 1410 | 2230 | 3610 | 6900 | 8040 |
| 2026-05-05 01:00 | 10.69 | 3010 | 14800 (2017) | 281 (1946) | 2280 | 361 | 423 | 764 | 812 | 1410 | 2230 | 3610 | 6900 | 8040 |
| 2026-05-05 00:00 | 10.73 | 3040 | 14800 (2017) | 281 (1946) | 2280 | 361 | 423 | 764 | 812 | 1410 | 2230 | 3610 | 6900 | 8040 |
| 2026-05-04 23:00 | 10.78 | 3080 | 14800 (2017) | 281 (1946) | 2280 | 361 | 423 | 764 | 812 | 1410 | 2230 | 3610 | 6900 | 8040 |
| 2026-05-04 22:00 | 10.84 | 3130 | 11700 (1956) | 275 (1946) | 2380 | 413 | 518 | 760 | 851 | 1410 | 2560 | 3800 | 6960 | 8290 |
| 2026-05-04 21:00 | 10.88 | 3160 | 11700 (1956) | 275 (1946) | 2380 | 413 | 518 | 760 | 851 | 1410 | 2560 | 3800 | 6960 | 8290 |
| 2026-05-04 20:00 | 10.93 | 3200 | 11700 (1956) | 275 (1946) | 2380 | 413 | 518 | 760 | 851 | 1410 | 2560 | 3800 | 6960 | 8290 |
| 2026-05-04 19:00 | 10.95 | 3220 | 11700 (1956) | 275 (1946) | 2380 | 413 | 518 | 760 | 851 | 1410 | 2560 | 3800 | 6960 | 8290 |
| 2026-05-04 18:00 | 10.99 | 3250 | 11700 (1956) | 275 (1946) | 2380 | 413 | 518 | 760 | 851 | 1410 | 2560 | 3800 | 6960 | 8290 |
| 2026-05-04 17:00 | 11.04 | 3290 | 11700 (1956) | 275 (1946) | 2380 | 413 | 518 | 760 | 851 | 1410 | 2560 | 3800 | 6960 | 8290 |
| 2026-05-04 16:00 | 11.05 | 3300 | 11700 (1956) | 275 (1946) | 2380 | 413 | 518 | 760 | 851 | 1410 | 2560 | 3800 | 6960 | 8290 |
| 2026-05-04 15:00 | 11.06 | 3310 | 11700 (1956) | 275 (1946) | 2380 | 413 | 518 | 760 | 851 | 1410 | 2560 | 3800 | 6960 | 8290 |
| 2026-05-04 14:00 | 11.09 | 3330 | 11700 (1956) | 275 (1946) | 2380 | 413 | 518 | 760 | 851 | 1410 | 2560 | 3800 | 6960 | 8290 |
| 2026-05-04 13:00 | 11.13 | 3370 | 11700 (1956) | 275 (1946) | 2380 | 413 | 518 | 760 | 851 | 1410 | 2560 | 3800 | 6960 | 8290 |
| 2026-05-04 12:00 | 11.15 | 3380 | 11700 (1956) | 275 (1946) | 2380 | 413 | 518 | 760 | 851 | 1410 | 2560 | 3800 | 6960 | 8290 |
| 2026-05-04 11:00 | 11.18 | 3410 | 11700 (1956) | 275 (1946) | 2380 | 413 | 518 | 760 | 851 | 1410 | 2560 | 3800 | 6960 | 8290 |
| 2026-05-04 10:00 | 11.19 | 3420 | 11700 (1956) | 275 (1946) | 2380 | 413 | 518 | 760 | 851 | 1410 | 2560 | 3800 | 6960 | 8290 |
| 2026-05-04 09:00 | 11.21 | 3430 | 11700 (1956) | 275 (1946) | 2380 | 413 | 518 | 760 | 851 | 1410 | 2560 | 3800 | 6960 | 8290 |
| 2026-05-04 08:00 | 11.24 | 3460 | 11700 (1956) | 275 (1946) | 2380 | 413 | 518 | 760 | 851 | 1410 | 2560 | 3800 | 6960 | 8290 |
| 2026-05-04 07:00 | 11.25 | 3470 | 11700 (1956) | 275 (1946) | 2380 | 413 | 518 | 760 | 851 | 1410 | 2560 | 3800 | 6960 | 8290 |
| 2026-05-04 06:00 | 11.28 | 3490 | 11700 (1956) | 275 (1946) | 2380 | 413 | 518 | 760 | 851 | 1410 | 2560 | 3800 | 6960 | 8290 |
| 2026-05-04 05:00 | 11.30 | 3510 | 11700 (1956) | 275 (1946) | 2380 | 413 | 518 | 760 | 851 | 1410 | 2560 | 3800 | 6960 | 8290 |
| 2026-05-04 04:00 | 11.32 | 3520 | 11700 (1956) | 275 (1946) | 2380 | 413 | 518 | 760 | 851 | 1410 | 2560 | 3800 | 6960 | 8290 |
| 2026-05-04 03:00 | 11.34 | 3540 | 11700 (1956) | 275 (1946) | 2380 | 413 | 518 | 760 | 851 | 1410 | 2560 | 3800 | 6960 | 8290 |
| 2026-05-04 02:00 | 11.36 | 3560 | 11700 (1956) | 275 (1946) | 2380 | 413 | 518 | 760 | 851 | 1410 | 2560 | 3800 | 6960 | 8290 |
| 2026-05-04 00:30 | 11.38 | 3570 | 11700 (1956) | 275 (1946) | 2380 | 413 | 518 | 760 | 851 | 1410 | 2560 | 3800 | 6960 | 8290 |
| 2026-05-04 00:00 | 11.39 | 3580 | 11700 (1956) | 275 (1946) | 2380 | 413 | 518 | 760 | 851 | 1410 | 2560 | 3800 | 6960 | 8290 |
| 2026-05-03 23:00 | 11.40 | 3590 | 11700 (1956) | 275 (1946) | 2380 | 413 | 518 | 760 | 851 | 1410 | 2560 | 3800 | 6960 | 8290 |
| 2026-05-03 22:00 | 11.43 | 3610 | 13700 (2019) | 290 (1946) | 2500 | 415 | 498 | 834 | 901 | 1350 | 2690 | 4420 | 6170 | 9370 |
| 2026-05-03 21:00 | 11.43 | 3610 | 13700 (2019) | 290 (1946) | 2500 | 415 | 498 | 834 | 901 | 1350 | 2690 | 4420 | 6170 | 9370 |
| 2026-05-03 20:00 | 11.46 | 3640 | 13700 (2019) | 290 (1946) | 2500 | 415 | 498 | 834 | 901 | 1350 | 2690 | 4420 | 6170 | 9370 |
| 2026-05-03 19:00 | 11.47 | 3650 | 13700 (2019) | 290 (1946) | 2500 | 415 | 498 | 834 | 901 | 1350 | 2690 | 4420 | 6170 | 9370 |
| 2026-05-03 18:00 | 11.49 | 3670 | 13700 (2019) | 290 (1946) | 2500 | 415 | 498 | 834 | 901 | 1350 | 2690 | 4420 | 6170 | 9370 |
| 2026-05-03 17:00 | 11.50 | 3670 | 13700 (2019) | 290 (1946) | 2500 | 415 | 498 | 834 | 901 | 1350 | 2690 | 4420 | 6170 | 9370 |
| 2026-05-03 16:00 | 11.52 | 3690 | 13700 (2019) | 290 (1946) | 2500 | 415 | 498 | 834 | 901 | 1350 | 2690 | 4420 | 6170 | 9370 |
| 2026-05-03 15:00 | 11.54 | 3710 | 13700 (2019) | 290 (1946) | 2500 | 415 | 498 | 834 | 901 | 1350 | 2690 | 4420 | 6170 | 9370 |
| 2026-05-03 14:00 | 11.54 | 3710 | 13700 (2019) | 290 (1946) | 2500 | 415 | 498 | 834 | 901 | 1350 | 2690 | 4420 | 6170 | 9370 |
| 2026-05-03 13:00 | 11.56 | 3720 | 13700 (2019) | 290 (1946) | 2500 | 415 | 498 | 834 | 901 | 1350 | 2690 | 4420 | 6170 | 9370 |
| 2026-05-03 12:00 | 11.60 | 3760 | 13700 (2019) | 290 (1946) | 2500 | 415 | 498 | 834 | 901 | 1350 | 2690 | 4420 | 6170 | 9370 |
| 2026-05-03 11:00 | 11.61 | 3770 | 13700 (2019) | 290 (1946) | 2500 | 415 | 498 | 834 | 901 | 1350 | 2690 | 4420 | 6170 | 9370 |
| 2026-05-03 10:00 | 11.63 | 3780 | 13700 (2019) | 290 (1946) | 2500 | 415 | 498 | 834 | 901 | 1350 | 2690 | 4420 | 6170 | 9370 |
| 2026-05-03 09:00 | 11.64 | 3790 | 13700 (2019) | 290 (1946) | 2500 | 415 | 498 | 834 | 901 | 1350 | 2690 | 4420 | 6170 | 9370 |
| 2026-05-03 08:00 | 11.65 | 3800 | 13700 (2019) | 290 (1946) | 2500 | 415 | 498 | 834 | 901 | 1350 | 2690 | 4420 | 6170 | 9370 |
| 2026-05-03 07:00 | 11.68 | 3830 | 13700 (2019) | 290 (1946) | 2500 | 415 | 498 | 834 | 901 | 1350 | 2690 | 4420 | 6170 | 9370 |
| 2026-05-03 06:00 | 11.69 | 3830 | 13700 (2019) | 290 (1946) | 2500 | 415 | 498 | 834 | 901 | 1350 | 2690 | 4420 | 6170 | 9370 |
| 2026-05-03 05:00 | 11.69 | 3830 | 13700 (2019) | 290 (1946) | 2500 | 415 | 498 | 834 | 901 | 1350 | 2690 | 4420 | 6170 | 9370 |
| 2026-05-03 04:00 | 11.70 | 3840 | 13700 (2019) | 290 (1946) | 2500 | 415 | 498 | 834 | 901 | 1350 | 2690 | 4420 | 6170 | 9370 |
| 2026-05-03 03:00 | 11.71 | 3850 | 13700 (2019) | 290 (1946) | 2500 | 415 | 498 | 834 | 901 | 1350 | 2690 | 4420 | 6170 | 9370 |
| 2026-05-03 02:00 | 11.72 | 3860 | 13700 (2019) | 290 (1946) | 2500 | 415 | 498 | 834 | 901 | 1350 | 2690 | 4420 | 6170 | 9370 |
| 2026-05-03 01:00 | 11.72 | 3860 | 13700 (2019) | 290 (1946) | 2500 | 415 | 498 | 834 | 901 | 1350 | 2690 | 4420 | 6170 | 9370 |
| 2026-05-03 00:00 | 11.71 | 3850 | 13700 (2019) | 290 (1946) | 2500 | 415 | 498 | 834 | 901 | 1350 | 2690 | 4420 | 6170 | 9370 |
| 2026-05-02 23:00 | 11.72 | 3860 | 13700 (2019) | 290 (1946) | 2500 | 415 | 498 | 834 | 901 | 1350 | 2690 | 4420 | 6170 | 9370 |
A total of 178 rows are displayed for years 1922 through 2024.